Bentonville, AR

12:04 AM CDT on June 23, 2017 (GMT -0500)
Bentonville Municipal-Thaden

Weather History for KVBT - September, 2012

Change the Weather History Date:

Saturday, September 1, 2012

  Actual Average Record
Temperature  
Mean Temperature 78 °F -  
Max Temperature 86 °F 86 °F 99 °F (1990)
Min Temperature 69 °F 62 °F 45 °F (1949)
Cooling Degree Days 12    
Growing Degree Days 28 (Base 50)    
Moisture  
Dew Point 67 °F    
Average Humidity 69    
Maximum Humidity 88    
Minimum Humidity 54    
Precipitation  
Precipitation 0.07 in - - ()
Sea Level Pressure  
Sea Level Pressure 29.93 in    
Wind  
Wind Speed 9 mph (West)    
Max Wind Speed 20 mph    
Max Gust Speed 26 mph    
Visibility 10 miles    
Events      
Averages and records for this station are not official NWS values.
T = Trace of Precipitation, MM = Missing Value Source: NWS Daily Summary

Daily Weather History Graph

Daily Weather History Graph

Search for Another Location

Airport or City:

Trip Planner

Search our weather history database for the weather conditions in past years. The results will help you decide how hot, cold, wet, or windy it might be!

Date:

Astronomy

Sep. 01, 2012 Rise Set
Actual Time 6:48 AM CDT 7:44 PM CDT
Civil Twilight 6:22 AM CDT 8:10 PM CDT
Nautical Twilight 5:51 AM CDT 8:41 PM CDT
Astronomical Twilight 5:19 AM CDT 9:13 PM CDT
Moon 8:05 PM CDT (9/1) 7:53 AM CDT (9/1)
Length of Visible Light 13h 47m
Length of Day
12h 55m
Full, 99% of the Moon is Illuminated
Sep 1
Full
Sep 8
Last Quarter
Sep 15
New
Sep 22
First Quarter
Sep 29
Full

Hourly Weather History & Observations

Time (CDT) Temp. Heat Index Dew Point Humidity Pressure Visibility Wind Dir Wind Speed Gust Speed Precip Events Conditions
12:15 AM 71.6 °F - 68.0 °F 88% 29.90 in 10.0 mi West 4.6 mph - N/A   Overcast
12:35 AM 71.6 °F - 66.2 °F 83% 29.89 in 10.0 mi West 4.6 mph - N/A   Mostly Cloudy
12:55 AM 71.6 °F - 68.0 °F 88% 29.89 in 10.0 mi SW 4.6 mph - N/A   Overcast
1:15 AM 71.6 °F - 66.2 °F 83% 29.89 in 10.0 mi SW 5.8 mph - N/A   Overcast
1:35 AM 71.6 °F - 66.2 °F 83% 29.89 in 10.0 mi WSW 9.2 mph - N/A   Overcast
1:55 AM 71.6 °F - 66.2 °F 83% 29.90 in 10.0 mi SW 6.9 mph - N/A   Overcast
2:15 AM 71.6 °F - 66.2 °F 83% 29.89 in 10.0 mi WSW 10.4 mph - N/A   Overcast
2:35 AM - - - N/A% 29.89 in 10.0 mi SW 10.4 mph - N/A   Overcast
2:55 AM - - - N/A% 29.88 in 10.0 mi SW 9.2 mph - N/A   Mostly Cloudy
3:15 AM - - - N/A% 29.89 in 10.0 mi WSW 6.9 mph - N/A   Partly Cloudy
3:35 AM - - - N/A% 29.90 in 10.0 mi WSW 6.9 mph - N/A   Mostly Cloudy
3:55 AM - - - N/A% 29.90 in 10.0 mi SW 8.1 mph - N/A   Overcast
4:15 AM - - - N/A% 29.90 in 10.0 mi SW 9.2 mph - N/A   Overcast
4:35 AM - - - N/A% 29.91 in 10.0 mi SW 9.2 mph - N/A   Overcast
4:55 AM - - - N/A% 29.90 in 10.0 mi SW 11.5 mph - N/A   Overcast
5:15 AM - - - N/A% 29.90 in 10.0 mi SW 11.5 mph - N/A   Overcast
5:35 AM - - - N/A% 29.91 in 10.0 mi SW 11.5 mph - N/A   Overcast
5:55 AM - - - N/A% 29.91 in 10.0 mi WSW 12.7 mph - N/A   Overcast
6:15 AM - - - N/A% 29.91 in 10.0 mi WSW 13.8 mph - N/A   Overcast
6:35 AM - - - N/A% 29.92 in 10.0 mi WSW 12.7 mph 17.3 mph N/A   Overcast
7:15 AM - - - N/A% 29.93 in 10.0 mi West 10.4 mph - N/A   Mostly Cloudy
7:35 AM - - - N/A% 29.95 in 10.0 mi West 11.5 mph 20.7 mph N/A   Mostly Cloudy
7:55 AM 71.6 °F - 64.4 °F 78% 29.97 in 7.0 mi West 12.7 mph 25.3 mph 0.01 in   Overcast
8:15 AM 69.8 °F - 64.4 °F 83% 29.97 in 5.0 mi West 15.0 mph 26.5 mph 0.02 in   Overcast
8:35 AM 69.8 °F - 64.4 °F 83% 29.96 in 8.0 mi WSW 17.3 mph 23.0 mph 0.06 in   Mostly Cloudy
8:55 AM 71.6 °F - 66.2 °F 83% 29.95 in 10.0 mi WSW 10.4 mph 18.4 mph 0.06 in   Mostly Cloudy
9:15 AM 73.4 °F - 66.2 °F 78% 29.94 in 10.0 mi West 10.4 mph - N/A   Mostly Cloudy
9:35 AM 75.2 °F - 68.0 °F 78% 29.94 in 10.0 mi West 12.7 mph 18.4 mph N/A   Scattered Clouds
10:15 AM - - - N/A% 29.95 in 10.0 mi West 15.0 mph 23.0 mph N/A   Overcast
10:35 AM 77.0 °F - 66.2 °F 69% 29.96 in 10.0 mi West 12.7 mph 16.1 mph N/A   Overcast
10:55 AM 78.8 °F - 66.2 °F 65% 29.96 in 10.0 mi West 10.4 mph - N/A   Overcast
11:15 AM - - - N/A% 29.96 in 10.0 mi West 17.3 mph 24.2 mph N/A   Scattered Clouds
11:35 AM 80.6 °F 83.9 °F 69.8 °F 70% 29.96 in 10.0 mi West 18.4 mph 26.5 mph N/A   Scattered Clouds
11:55 AM 80.6 °F 83.2 °F 68.0 °F 65% 29.96 in 10.0 mi West 13.8 mph 24.2 mph N/A   Mostly Cloudy
12:15 PM 82.4 °F 86.3 °F 69.8 °F 66% 29.96 in 10.0 mi West 19.6 mph 26.5 mph N/A   Mostly Cloudy
12:35 PM 82.4 °F 86.3 °F 69.8 °F 66% 29.95 in 10.0 mi West 17.3 mph 25.3 mph N/A   Overcast
1:15 PM 82.4 °F 85.4 °F 68.0 °F 62% 29.95 in 10.0 mi WNW 13.8 mph 20.7 mph N/A   Mostly Cloudy
1:35 PM 82.4 °F 85.4 °F 68.0 °F 62% 29.96 in 10.0 mi West 12.7 mph 21.9 mph N/A   Overcast
1:55 PM 82.4 °F 84.6 °F 66.2 °F 58% 29.96 in 10.0 mi WNW 15.0 mph 24.2 mph N/A   Overcast
2:15 PM 82.4 °F 84.6 °F 66.2 °F 58% 29.96 in 10.0 mi West 12.7 mph 24.2 mph N/A   Overcast
2:35 PM 82.4 °F 83.9 °F 64.4 °F 54% 29.95 in 10.0 mi West 16.1 mph 25.3 mph N/A   Overcast
2:55 PM 82.4 °F 84.6 °F 66.2 °F 58% 29.95 in 10.0 mi WNW 12.7 mph 16.1 mph N/A   Mostly Cloudy
3:15 PM 84.2 °F 86.6 °F 66.2 °F 55% 29.94 in 10.0 mi WNW 12.7 mph 20.7 mph N/A   Scattered Clouds
3:35 PM 84.2 °F 86.6 °F 66.2 °F 55% 29.94 in 10.0 mi WNW 15.0 mph 20.7 mph N/A   Partly Cloudy
3:55 PM 84.2 °F 86.6 °F 66.2 °F 55% 29.94 in 10.0 mi West 13.8 mph 19.6 mph N/A   Partly Cloudy
4:15 PM 84.2 °F 86.6 °F 66.2 °F 55% 29.93 in 10.0 mi West 11.5 mph 20.7 mph N/A   Mostly Cloudy
4:35 PM 84.2 °F 86.6 °F 66.2 °F 55% 29.93 in 10.0 mi WNW 10.4 mph - N/A   Overcast
4:55 PM 84.2 °F 86.6 °F 66.2 °F 55% 29.92 in 10.0 mi West 8.1 mph - N/A   Overcast
5:15 PM 84.2 °F 86.6 °F 66.2 °F 55% 29.91 in 10.0 mi West 9.2 mph - N/A   Overcast
5:35 PM 84.2 °F 87.3 °F 68.0 °F 58% 29.91 in 10.0 mi NW 9.2 mph - N/A   Mostly Cloudy
5:55 PM 86.0 °F 89.4 °F 68.0 °F 55% 29.91 in 10.0 mi WNW 11.5 mph - N/A   Partly Cloudy
6:15 PM 86.0 °F 89.4 °F 68.0 °F 55% 29.91 in 10.0 mi WNW 9.2 mph - N/A   Clear
6:35 PM 86.0 °F 89.4 °F 68.0 °F 55% 29.92 in 10.0 mi WNW 4.6 mph - N/A   Scattered Clouds
6:55 PM 84.2 °F 87.3 °F 68.0 °F 58% 29.91 in 10.0 mi West 6.9 mph - N/A   Partly Cloudy
7:15 PM 84.2 °F 87.3 °F 68.0 °F 58% 29.91 in 10.0 mi West 5.8 mph - N/A   Clear
7:35 PM 82.4 °F 85.4 °F 68.0 °F 62% 29.91 in 10.0 mi WNW 4.6 mph - N/A   Clear
7:55 PM 82.4 °F 85.4 °F 68.0 °F 62% 29.92 in 10.0 mi NW 3.5 mph - N/A   Clear
8:15 PM 80.6 °F 83.2 °F 68.0 °F 65% 29.92 in 10.0 mi NW 3.5 mph - N/A   Partly Cloudy
8:35 PM 78.8 °F - 68.0 °F 69% 29.94 in 10.0 mi NNE 10.4 mph - N/A   Partly Cloudy
8:55 PM 78.8 °F - 68.0 °F 69% 29.95 in 10.0 mi NNE 8.1 mph - N/A   Clear
9:15 PM 75.2 °F - 68.0 °F 78% 29.96 in 10.0 mi NNE 6.9 mph - N/A   Clear
9:35 PM 75.2 °F - 66.2 °F 73% 29.96 in 10.0 mi NNE 5.8 mph - N/A   Clear
9:55 PM 75.2 °F - 66.2 °F 73% 29.97 in 10.0 mi NNE 5.8 mph - N/A   Clear
10:15 PM 75.2 °F - 66.2 °F 73% 29.96 in 10.0 mi NNE 3.5 mph - N/A   Clear
10:35 PM 73.4 °F - 68.0 °F 83% 29.97 in 10.0 mi NNE 3.5 mph - N/A   Clear
11:15 PM 71.6 °F - 66.2 °F 83% 29.97 in 10.0 mi Calm Calm - N/A   Clear
11:35 PM 71.6 °F - 66.2 °F 83% 29.97 in 10.0 mi Calm Calm - N/A   Clear
11:55 PM 71.6 °F - 66.2 °F 83% 29.97 in 10.0 mi Calm Calm - N/A   Clear